Погода в Нововолынске

Украина / Волынская область     50°43′31″N   24°09′45″E
темп.,
°C
ветер,
м/с
пор.,
м/с
влажн.,
%
обл.,
%
осадки,
мм/ч
давл.,
гПа
погр.,
м
13 апреля, вт
вт1300:00+12ююв228159 0.5 101726
03:00+11вюв0184100 0.6 101713
06:00+10сз3493100 0.0 1017113
09:00+9сз5592100 0.0 1018325
12:00+7зсз6685100 0.0 1019511
15:00+6сз6785100 0.0 1020566
18:00+4ссз6888100 0.0 1019495
21:00+3ссз5792100 0.3 1019449
14 апреля, ср
ср1400:00+3ссз4792100 0.1 1018411
03:00+3ссз5793100 0.1 1017410
06:00+2с5995100 0.0 1015460
09:00+2ссз5896100 0.3 1015495
12:00+2ссз5897100 1.6 1015454
15:00+2сз5897100 3.2 1015411
18:00+1сз4799100 1.9 1015253
21:00+1сз46100100 2.9 1016244
15 апреля, чт
чт1500:00+1зсз3599100 0.1 1015246
03:00+1зсз34100100 0.1 1015256
06:00+1з35100100 0.0 1015250
09:00+2зсз35100100 0.1 1016260
12:00+2з3599100 0.4 1017265
15:00+2зсз4699100 0.9 1017283
18:00+2зсз4799100 1.6 1017266
21:00+2зсз5998100 1.9 1017282
16 апреля, пт
пт1600:00+2зсз61198100 2.1 1016335
03:00+2зсз61298100 2.1 1015393
06:00+3сз61298100 0.3 1014376
09:00+4сз51198100 2.9 1014427
12:00+5сз61097100 0.4 1015553
15:00+5сз61097100 0.9 1015552
18:00+4зсз61198100 0.6 1016502
21:00+4зсз51098100 1.8 1017434
17 апреля, сб
сб1700:00+3з5998100 2.1 1017369
03:00+3з4798100 2.6 1017327
06:00+3з3699100 0.1 1018209
09:00+4зюз2399100 0.2 1018159
12:00+6ююз1195100 0.1 1018259
15:00+8ююз1182100 0.1 1019553
18:00+9с117987 0.1 1018476
21:00+6вюв369167 0.2 1019148